Location: Franzen
(48.6167°N, 15.3833°E)
Time: 16:30:16
(UTC+00:00)

Cosmos 2219 - Pass Details

Date: 30 July 2021
Orbit: 834 x 860 km, 71.1° (Epoch: 18 September)

Event Time Altitude Azimuth Distance (km) Brightness Sun altitude
Exits shadow 02:05:08 - 274° (W) 3,375 6.0 -11.8°
Reaches altitude 10° 02:08:47 10° 299° (WNW) 2,501 5.5 -11.4°
Maximum altitude 02:11:38 14° 329° (NNW) 2,243 5.6 -11.1°
Drops below altitude 10° 02:14:30 10° 359° (N) 2,507 6.3 -10.8°
Sets 02:18:23 0° 25° (NNE) 3,447 7.8 -10.3°
